FW2218 Weather Reports


time (UTC)temp
C
wind
direction
speed
KPH
gust
KPH
rain 1hr
cm
rain 24hr
cm
rain mn
cm
humidity
%
barometer
mb
20260508040031 18 274 11.3 22.5 0.00 0.00 0.00 30 1009.6
20260508033144 18 264 14.5 30.6 0.00 0.00 0.00 26 1009.1
20260508031533 19 265 12.9 29.0 0.00 0.00 0.00 25 1008.9
20260508030031 20 267 12.9 29.0 0.00 0.00 0.00 23 1008.8
20260508024604 20 271 14.5 29.0 0.00 0.00 0.00 22 1008.7
20260508023029 21 276 16.1 32.2 0.00 0.00 0.00 22 1008.7
20260508021529 21 280 14.5 32.2 0.00 0.00 0.00 22 1008.7
20260508020039 22 280 12.9 27.4 0.00 0.00 0.00 23 1008.7
20260508014529 21 278 14.5 30.6 0.00 0.00 0.00 23 1008.8
20260508013146 21 272 19.3 33.8 0.00 0.00 0.00 23 1008.8
20260508010038 22 273 19.3 33.8 0.00 0.00 0.00 22 1008.8
20260508004527 22 277 19.3 37.0 0.00 0.00 0.00 21 1008.8
20260508003145 22 278 20.9 38.6 0.00 0.00 0.00 21 1008.7
20260508001529 23 276 22.5 37.0 0.00 0.00 0.00 22 1008.6
20260508000029 22 277 19.3 40.2 0.00 0.00 0.00 24 1008.7
20260507234529 22 277 19.3 35.4 0.00 0.00 0.00 25 1008.8
20260507233032 23 279 17.7 33.8 0.00 0.00 0.00 27 1008.8
20260507231532 23 275 16.1 32.2 0.00 0.00 0.00 27 1008.9
20260507230036 23 280 16.1 32.2 0.00 0.00 0.00 26 1009.0
20260507224529 23 281 16.1 33.8 0.00 0.00 0.00 26 1009.2
20260507221532 23 278 17.7 37.0 0.00 0.00 0.00 26 1009.4
20260507213029 23 282 16.1 35.4 0.00 0.00 0.00 30 1009.9
20260507210029 22 298 14.5 27.4 0.00 0.00 0.00 31 1010.3
20260507204533 22 290 14.5 30.6 0.00 0.00 0.00 32 1010.4
20260507203031 22 285 12.9 29.0 0.00 0.00 0.00 33 1010.4
20260507201532 22 288 12.9 29.0 0.00 0.00 0.00 34 1010.6
20260507200032 21 294 11.3 32.2 0.00 0.00 0.00 35 1010.8
20260507194531 21 286 12.9 24.1 0.00 0.00 0.00 36 1010.9
20260507193032 21 281 12.9 30.6 0.00 0.00 0.00 38 1011.0
20260507190034 19 289 16.1 33.8 0.00 0.00 0.00 42 1011.5
20260507184607 19 297 16.1 30.6 0.00 0.00 0.00 43 1011.7
20260507183040 18 303 12.9 27.4 0.00 0.00 0.00 44 1011.9
20260507181533 18 304 14.5 30.6 0.00 0.00 0.00 46 1012.1
20260507180107 18 295 11.3 25.7 0.00 0.00 0.00 48 1012.1
20260507174533 17 291 12.9 33.8 0.00 0.00 0.00 49 1012.2
20260507173029 17 296 11.3 25.7 0.00 0.00 0.00 50 1012.5
20260507171535 17 303 8.0 24.1 0.00 0.00 0.00 53 1012.7
20260507170036 17 315 9.7 20.9 0.00 0.00 0.00 55 1012.7
20260507164532 16 298 12.9 27.4 0.00 0.00 0.00 55 1012.8
20260507163032 16 292 11.3 20.9 0.00 0.00 0.00 57 1012.8
20260507161608 16 277 12.9 29.0 0.00 0.00 0.00 58 1012.9
20260507160034 15 274 12.9 29.0 0.00 0.00 0.00 60 1013.1
20260507154606 15 268 12.9 24.1 0.00 0.00 0.00 60 1013.2
20260507153033 15 259 11.3 20.9 0.00 0.00 0.00 62 1013.4
20260507151531 15 269 9.7 19.3 0.00 0.00 0.00 64 1013.3
20260507150034 14 275 9.7 20.9 0.00 0.00 0.00 66 1013.4
20260507144534 13 276 11.3 25.7 0.00 0.00 0.00 68 1013.3
20260507141606 13 271 16.1 29.0 0.00 0.00 0.00 70 1013.1
20260507140026 12 271 16.1 27.4 0.00 0.00 0.00 72 1012.9
20260507134534 12 270 17.7 29.0 0.00 0.00 0.00 73 1012.8
20260507133030 12 272 16.1 27.4 0.00 0.00 0.00 73 1012.8
20260507131531 12 272 16.1 25.7 0.00 0.00 0.00 73 1012.9
20260507124531 12 281 9.7 17.7 0.00 0.00 0.00 73 1013.0
20260507123029 12 286 9.7 17.7 0.00 0.00 0.00 73 1013.1
20260507121532 12 284 9.7 17.7 0.00 0.00 0.00 73 1013.0
20260507120145 12 285 9.7 24.1 0.00 0.00 0.00 73 1012.8
20260507113032 13 273 12.9 29.0 0.00 0.00 0.00 73 1012.3
20260507111530 13 263 12.9 20.9 0.00 0.00 0.00 72 1012.2
20260507110032 13 257 16.1 29.0 0.00 0.00 0.00 72 1011.9
20260507104607 13 254 17.7 29.0 0.00 0.00 0.00 73 1011.7
20260507103028 13 259 14.5 29.0 0.00 0.00 0.00 73 1011.9
20260507101533 13 257 14.5 27.4 0.00 0.00 0.00 72 1012.0
20260507100036 13 257 12.9 24.1 0.00 0.00 0.00 71 1012.1
20260507094526 14 255 11.3 20.9 0.00 0.00 0.00 71 1012.1
20260507091531 14 269 8.0 19.3 0.00 0.00 0.00 71 1012.3
20260507090105 15 323 8.0 16.1 0.00 0.00 0.00 70 1012.3
20260507084529 15 346 6.4 12.9 0.00 0.00 0.00 71 1012.1
20260507083034 15 344 6.4 17.7 0.00 0.00 0.00 71 1012.0
20260507081604 15 332 4.8 14.5 0.00 0.00 0.00 71 1012.0
20260507074532 15 288 4.8 20.9 0.00 0.00 0.00 70 1012.1
20260507071604 15 265 14.5 27.4 0.00 0.00 0.00 70 1011.9
20260507070105 16 267 16.1 33.8 0.00 0.00 0.00 69 1011.9
20260507064532 16 268 14.5 29.0 0.00 0.00 0.00 70 1011.9
20260507063031 16 272 11.3 25.7 0.00 0.00 0.00 69 1012.0
20260507060031 16 270 11.3 22.5 0.00 0.00 0.00 69 1012.3
20260507054531 16 269 11.3 22.5 0.00 0.00 0.00 69 1012.4
20260507053031 16 267 11.3 25.7 0.00 0.00 0.00 68 1012.4
20260507051529 16 265 12.9 25.7 0.00 0.00 0.00 67 1012.4
20260507050032 17 264 12.9 27.4 0.00 0.00 0.00 65 1012.4
20260507041607 18 278 6.4 19.3 0.00 0.00 0.00 56 1012.2
20260507040037 18 248 9.7 25.7 0.00 0.00 0.00 52 1011.9